[[{"header":{"parameterUnit":"m.s-1","parameterCategory":2,"la1":30.2991,"la2":30.254,"lo1":-89.0895,"lo2":-89.0444,"dy":0.0017,"dx":0.0017,"nx":28,"ny":28,"refTime":"2025-01-25T09:00:00:Z","depth":"0","parameterNumber":2,"parameterNumberName":"U-component_of_CURRENTS"},"data":[0,0,0,0,0,0,0,0,0,0,0,0,0,0,0,0,0,0,0,0,0,0,0,0,0,0,0,0,0,0,0,0,0,0,0,0,0,0,0,0,0,0,0,0,0,0,0,0,0,0,0,0,0,0,0,0,0,0,0.3875,0.3876,0,0.3927,0.3927,0.3928,0.392,0.3919,0.3919,0.3918,0.3924,0.3925,0.3925,0,0,0,0,0,0,0,0,0,0,0,0,0,0.3786,0.3787,0.3875,0.3876,0.3877,0.3927,0.3927,0.3928,0.392,0.3919,0.3919,0.3918,0.3924,0.3924,0.3925,0,0,0,0,0,0,0,0,0,0,0,0,0,0.3827,0.3788,0.3875,0.3882,0.3883,0.3927,0.3927,0.3928,0.392,0.3919,0.3918,0.3918,0.3923,0.3924,0.3925,0.395,0,0,0.3929,0.3929,0,0,0,0,0,0,0,0,0.3824,0.383,0.388,0.3881,0.3883,0.3919,0.3898,0.3934,0.392,0.3903,0.3918,0.3917,0.3921,0.3922,0.393,0.395,0.395,0.3929,0.3929,0.393,0.393,0,0,0,0,0,0,0,0.3822,0.3828,0.3893,0.3881,0.3883,0.3888,0.3892,0.3905,0.3913,0.3904,0.3905,0.3916,0.3921,0.3929,0.393,0.395,0.3929,0.393,0.393,0.3931,0.4014,0.4016,0,0,0,0,0,0,0.3822,0.3825,0.3891,0.3895,0.3854,0.389,0.3895,0.3906,0.3914,0.3915,0.3916,0.3915,0.3927,0.3929,0.393,0.3987,0.393,0.3931,0.3931,0.4013,0.4015,0.4016,0,0,0,0,0,0,0.382,0.3827,0.3889,0.3863,0.3872,0.3893,0.3905,0.3907,0.3921,0.3924,0.3924,0.3929,0.3927,0.3928,0.3949,0.3985,0.3931,0.3932,0.4011,0.4013,0.4016,0.4082,0,0,0,0,0,0,0.3817,0.3826,0.3836,0.3863,0.3873,0.3928,0.3906,0.3909,0.3931,0.393,0.3935,0.3934,0.3926,0.3947,0.395,0.3986,0.3933,0.4009,0.4012,0.4015,0.4078,0.4086,0.4094,0,0,0,0,0,0.3814,0.3833,0.3836,0.3844,0.3885,0.3929,0.3935,0.3944,0.3932,0.395,0.3948,0.3934,0.3968,0.3949,0.3952,0.3989,0.4007,0.4011,0.4015,0.4074,0.4085,0.4093,0,0,0,0,0,0,0.3799,0.3835,0.3839,0.3867,0.3901,0.3929,0.3947,0.3953,0.3966,0.3962,0.3952,0.3952,0.3989,0.3979,0.3958,0.4022,0.3987,0.3992,0.4032,0.4042,0.4049,0.4074,0.3934,0,0,0,0,0,0.3801,0.3825,0.3861,0.3886,0.3903,0.3926,0.3944,0.3956,0.3972,0.3977,0.3979,0.3985,0.4008,0.4013,0.4029,0.4059,0.4132,0.4086,0.4094,0.4101,0.4123,0.4282,0.4308,0.4028,0.4028,0.4028,0,0,0.3804,0.3827,0.3841,0.3885,0.3907,0.3941,0.3934,0.3972,0.3999,0.3977,0.4006,0.4017,0.4023,0.4062,0.4077,0.4055,0.422,0.4105,0.4111,0.413,0.4289,0.4317,0.4341,0.4031,0.403,0.403,0,0,0.3821,0.3841,0.3865,0.3899,0.3944,0.3961,0.3975,0.4011,0.4024,0.4061,0.4056,0.409,0.4107,0.4129,0.4139,0.4201,0.4262,0.4203,0.4258,0.4413,0.4438,0.4461,0.4601,0.4637,0.4201,0.4201,0.4201,0,0.3822,0.3856,0.3881,0.3917,0.3954,0.3971,0.4015,0.4033,0.407,0.4116,0.4077,0.4167,0.4146,0.4231,0.4232,0.4222,0.4324,0.4219,0.4428,0.4452,0.4475,0.4613,0.4651,0.4204,0.4204,0.4204,0.4203,0,0.3857,0.389,0.3912,0.396,0.4004,0.4047,0.4085,0.4128,0.4143,0.4182,0.4273,0.4262,0.4334,0.4315,0.4278,0.4425,0.4452,0.4428,0.4409,0.4508,0.4646,0.4684,0.421,0.4208,0.4207,0.4206,0,0,0.3844,0.392,0.3927,0.3972,0.4036,0.4084,0.4143,0.4232,0.4316,0.4335,0.4465,0.4452,0.4486,0.4499,0.4481,0.4562,0.4772,0.4556,0.4562,0.4706,0.5141,0.5043,0.5075,0.4807,0.4814,0.4819,0.5178,0,0.3863,0.3941,0.3974,0.4059,0.4111,0.4171,0.4241,0.4331,0.4398,0.4526,0.4557,0.4652,0.4546,0.4597,0.4672,0.4772,0.4876,0.4678,0.5015,0.5025,0.4935,0.5116,0.4918,0.5212,0.5216,0.5222,0.5227,0,0.3889,0.3941,0.4029,0.415,0.4181,0.423,0.4397,0.4468,0.4639,0.4706,0.4822,0.4869,0.5,0.4884,0.5134,0.503,0.5093,0.5137,0.5153,0.5066,0.4998,0.5112,0.5282,0.5089,0.5287,0.5282,0.5278,0,0.3906,0.3987,0.4065,0.4103,0.4232,0.4295,0.4368,0.4532,0.4655,0.4843,0.498,0.5128,0.525,0.5364,0.5417,0.5333,0.5699,0.5609,0.5582,0.5576,0.5473,0.5445,0.5502,0.58,0.58,0.5799,0.5798,0,0.3953,0.4016,0.4071,0.4131,0.4265,0.4325,0.4507,0.461,0.4803,0.499,0.508,0.5248,0.5381,0.5572,0.5584,0.573,0.5861,0.5654,0.5686,0.5486,0.5457,0.5329,0.524,0.5812,0.5809,0.5806,0.5804,0,0.4032,0.4045,0.4157,0.4257,0.4292,0.4408,0.4601,0.4734,0.489,0.5148,0.5225,0.5455,0.5685,0.5796,0.6017,0.5962,0.5917,0.6072,0.5811,0.5802,0.553,0.5452,0.5447,0.5284,0.6151,0.6151,0.6151,0,0.4095,0.4153,0.4269,0.4331,0.4384,0.4529,0.4638,0.4788,0.4926,0.5249,0.5377,0.5663,0.5816,0.6114,0.61,0.62,0.596,0.6041,0.5797,0.5542,0.5483,0.5261,0.5106,0.5715,0.5712,0.5709,0.5706,0,0.4264,0.4293,0.4399,0.4483,0.4575,0.4685,0.4817,0.4927,0.5116,0.5298,0.5492,0.5628,0.5902,0.5908,0.6041,0.6041,0.5741,0.598,0.5818,0.5243,0.4914,0.476,0.5443,0.5681,0.5683,0.5685,0.5686,0.5687,0.4412,0.4509,0.4588,0.4653,0.4731,0.4749,0.4794,0.4909,0.5066,0.5217,0.5431,0.5518,0.5668,0.5804,0.5788,0.5596,0.5562,0.5398,0.5369,0.52,0.4883,0.5486,0.5664,0.5667,0.5669,0.5671,0.5672,0,0.4569,0.463,0.4723,0.4754,0.475,0.4772,0.4843,0.4808,0.4863,0.5053,0.5147,0.5187,0.5232,0.5291,0.5221,0.5014,0.4778,0.4859,0.4506,0.4414,0.5074,0.4884,0.4774,0.4774,0.4774,0.4774,0.4775,0.4775,0.4677,0.4769,0.4748,0.4709,0.469,0.4617,0.4593,0.4543,0.4595,0.4541,0.4518,0.4576,0.475,0.4857,0.4662,0.4553,0.4175,0.4021,0.3982,0.4431,0.4476,0.4519,0.4316,0.4089,0.4088,0.313,0.3123,0.3118]},{"header":{"parameterUnit":"m.s-1","parameterCategory":2,"la1":30.2991,"la2":30.254,"lo1":-89.0895,"lo2":-89.0444,"dy":0.0017,"dx":0.0017,"nx":28,"ny":28,"refTime":"2025-01-25T09:00:00:Z","depth":"0","parameterNumber":3,"parameterNumberName":"V-component_of_CURRENTS"},"data":[0,0,0,0,0,0,0,0,0,0,0,0,0,0,0,0,0,0,0,0,0,0,0,0,0,0,0,0,0,0,0,0,0,0,0,0,0,0,0,0,0,0,0,0,0,0,0,0,0,0,0,0,0,0,0,0,0,0,0.0188,0.0188,0,0.0123,0.0122,0.0121,0.0065,0.0065,0.0064,0.0064,-0.0047,-0.0049,-0.0052,0,0,0,0,0,0,0,0,0,0,0,0,0,0.0198,0.0198,0.0188,0.0188,0.0187,0.0123,0.0122,0.0121,0.0065,0.0065,0.0064,0.0064,-0.0046,-0.0049,-0.0052,0,0,0,0,0,0,0,0,0,0,0,0,0,0.0167,0.0199,0.0188,0.0153,0.015,0.0123,0.0122,0.012,0.0065,0.0065,0.0064,0.0064,-0.0045,-0.0049,-0.0053,-0.0064,0,0,-0.0064,-0.0066,0,0,0,0,0,0,0,0,0.0169,0.0167,0.0159,0.0156,0.0152,0.0103,0.0084,0.0057,0.0066,0.0095,0.0064,0.0063,0.0001,-0.0007,-0.002,-0.0069,-0.0074,-0.0065,-0.0067,-0.0069,-0.007,0,0,0,0,0,0,0,0.0172,0.0169,0.016,0.0159,0.0154,0.0118,0.0113,0.0079,0.005,0.0093,0.0089,0.0085,-0.0002,-0.0016,-0.0023,-0.0076,-0.0065,-0.0068,-0.007,-0.0072,-0.0135,-0.0135,0,0,0,0,0,0,0.0188,0.0172,0.0162,0.0158,0.0161,0.0118,0.0113,0.0118,0.0051,0.0041,0.0086,0.0083,-0.0009,-0.0019,-0.0027,-0.0022,-0.0069,-0.0072,-0.0075,-0.0136,-0.0135,-0.0134,0,0,0,0,0,0,0.0189,0.0189,0.0165,0.0164,0.0159,0.012,0.0125,0.0117,0.0107,0.0047,0.0036,0.0085,-0.001,-0.0022,-0.0045,-0.0028,-0.0074,-0.0078,-0.0137,-0.0136,-0.0135,-0.0026,0,0,0,0,0,0,0.019,0.0189,0.0196,0.0166,0.016,0.0166,0.0125,0.0116,0.0106,0.0102,0.0043,0.0031,-0.0012,-0.0039,-0.0049,-0.0034,-0.0081,-0.0137,-0.0136,-0.0135,-0.003,-0.0022,-0.0014,0,0,0,0,0,0.019,0.0212,0.0197,0.0195,0.0171,0.0168,0.0162,0.0128,0.0108,0.0115,0.0073,0.0033,-0.0039,-0.0041,-0.0053,-0.0039,-0.0138,-0.0136,-0.0135,-0.0034,-0.0023,-0.0014,0,0,0,0,0,0,0.022,0.0208,0.019,0.0206,0.0193,0.0159,0.016,0.0139,0.0111,0.0103,0.0043,0.003,0.0014,-0.0027,-0.0028,-0.0055,-0.0096,-0.0097,-0.0015,-0.0006,0.0003,0.0037,-0.0084,0,0,0,0,0,0.023,0.0242,0.0222,0.0233,0.023,0.0196,0.0188,0.017,0.0142,0.0129,0.0088,0.0043,0.0009,-0.0008,-0.0046,-0.0056,-0.0062,-0.0057,-0.0048,-0.0041,-0.0022,-0.0008,0.0004,-0.013,-0.013,-0.013,0,0,0.0243,0.0238,0.0243,0.024,0.0223,0.0236,0.019,0.019,0.02,0.0121,0.0119,0.007,0.0012,-0.0,-0.0011,-0.003,-0.0005,-0.0039,-0.0032,-0.0017,-0.0005,0.0008,0.002,-0.0129,-0.0129,-0.0129,0,0,0.0286,0.0273,0.03,0.0297,0.0286,0.0268,0.0275,0.0249,0.0237,0.0228,0.0174,0.0144,0.009,0.006,0.0035,0.0066,0.0038,0.0047,0.0119,0.0132,0.0144,0.0154,0.0177,0.0189,0.0053,0.0053,0.0053,0,0.0301,0.0332,0.0306,0.0332,0.034,0.0291,0.0325,0.0307,0.0278,0.0286,0.0241,0.0189,0.0122,0.0129,0.0123,0.0087,0.0096,0.0089,0.0147,0.0156,0.0165,0.0186,0.0197,0.0059,0.0058,0.0057,0.0057,0,0.0366,0.0387,0.0404,0.0421,0.0427,0.0445,0.0426,0.043,0.0401,0.0385,0.0384,0.0304,0.0282,0.0243,0.0182,0.0213,0.02,0.0157,0.013,0.0186,0.0203,0.0213,0.0066,0.0064,0.0063,0.0061,0,0,0.0409,0.0444,0.0449,0.0488,0.0477,0.0505,0.0518,0.0538,0.0593,0.0525,0.0595,0.0482,0.045,0.0419,0.0349,0.0335,0.0376,0.0273,0.0271,0.0313,0.0427,0.0386,0.0392,0.0352,0.0354,0.0355,0.042,0,0.0466,0.0553,0.0539,0.0619,0.0669,0.0637,0.0679,0.0689,0.0682,0.0737,0.0652,0.0684,0.0517,0.0536,0.0482,0.0432,0.0406,0.0364,0.0352,0.0352,0.0322,0.0403,0.0363,0.0414,0.0429,0.0431,0.0432,0,0.0536,0.0591,0.0682,0.0767,0.0787,0.0823,0.0907,0.0943,0.0977,0.0981,0.0966,0.0921,0.0895,0.0753,0.0666,0.0655,0.0539,0.0469,0.047,0.0403,0.033,0.0355,0.0431,0.0138,0.0447,0.0445,0.0444,0,0.0625,0.0697,0.0783,0.0804,0.088,0.0926,0.0975,0.1023,0.1116,0.1168,0.1262,0.1176,0.1223,0.1051,0.0863,0.0788,0.0788,0.0673,0.052,0.0517,0.0465,0.0453,0.0269,0.0598,0.0598,0.0598,0.0598,0,0.0711,0.0792,0.0839,0.0898,0.1042,0.1049,0.1215,0.1248,0.136,0.1533,0.1416,0.155,0.1304,0.1258,0.1001,0.0827,0.0895,0.0565,0.054,0.05,0.0491,0.0216,0.0053,0.06,0.06,0.0599,0.0599,0,0.0835,0.084,0.0967,0.1053,0.1094,0.1215,0.1395,0.1528,0.1607,0.1841,0.1889,0.1896,0.1846,0.1578,0.137,0.1073,0.0705,0.0768,0.0742,0.071,0.024,0.0087,-0.0074,-0.0191,0.0615,0.0615,0.0614,0,0.0916,0.0989,0.1109,0.1192,0.1241,0.141,0.1541,0.1647,0.1811,0.207,0.2213,0.225,0.2302,0.1979,0.1487,0.1082,0.0763,0.0734,0.054,0.0239,0.005,-0.0058,-0.0153,0.0523,0.0522,0.0521,0.052,0,0.1097,0.1124,0.1233,0.139,0.1519,0.1696,0.1894,0.2066,0.2245,0.2465,0.2734,0.281,0.2515,0.2117,0.1543,0.1205,0.0518,0.07,0.0402,-0.0019,-0.0156,-0.0287,0.0459,0.0512,0.0513,0.0514,0.0514,0.0514,0.1239,0.1349,0.1455,0.1609,0.1754,0.1952,0.2143,0.2384,0.269,0.3047,0.3089,0.3269,0.2611,0.1836,0.1382,0.0446,0.0469,0.0111,-0.0037,-0.0106,-0.0276,0.0455,0.046,0.046,0.0461,0.0461,0.0461,0,0.1392,0.1498,0.1663,0.1826,0.1992,0.2037,0.2353,0.257,0.2951,0.3293,0.3526,0.3269,0.2483,0.1652,0.0398,-0.0201,-0.0429,-0.0533,-0.0727,-0.0781,-0.0117,-0.0184,-0.0334,-0.0334,-0.0334,-0.0334,-0.0333,-0.0333,0.1477,0.1643,0.1708,0.1972,0.2102,0.2358,0.2544,0.2886,0.3182,0.3582,0.3701,0.3722,0.2926,0.0804,-0.0594,-0.0889,-0.131,-0.139,-0.1555,-0.1175,-0.1128,-0.1083,-0.1187,-0.1545,-0.1546,-0.2168,-0.2175,-0.218]}],[{"header":{"parameterUnit":"m.s-1","parameterCategory":2,"la1":30.2991,"la2":30.254,"lo1":-89.0895,"lo2":-89.0444,"dy":0.0017,"dx":0.0017,"nx":28,"ny":28,"refTime":"2025-01-25T09:00:00:Z","depth":"2","parameterNumber":2,"parameterNumberName":"U-component_of_CURRENTS"},"data":[0,0,0,0,0,0,0,0,0,0,0,0,0,0,0,0,0,0,0,0,0,0,0,0,0,0,0,0,0,0,0,0,0,0,0,0,0,0,0,0,0,0,0,0,0,0,0,0,0,0,0,0,0,0,0,0,0,0,0.2967,0.2967,0,0.3029,0.303,0.303,0.3045,0.3044,0.3044,0.3044,0.3078,0.3079,0.308,0,0,0,0,0,0,0,0,0,0,0,0,0,0.2869,0.2871,0.2966,0.2968,0.2969,0.3029,0.303,0.303,0.3045,0.3044,0.3044,0.3044,0.3078,0.3079,0.308,0,0,0,0,0,0,0,0,0,0,0,0,0,0.2917,0.2871,0.2966,0.2985,0.2988,0.3029,0.303,0.3031,0.3045,0.3044,0.3044,0.3044,0.3077,0.3079,0.3081,0.3095,0,0,0.3085,0.3086,0,0,0,0,0,0,0,0,0.2914,0.292,0.2981,0.2984,0.2987,0.3032,0.3008,0.3052,0.3045,0.302,0.3044,0.3044,0.3062,0.3065,0.3073,0.3097,0.3098,0.3085,0.3086,0.3087,0.3088,0,0,0,0,0,0,0,0.2911,0.2917,0.2988,0.2983,0.2986,0.2995,0.3001,0.3017,0.3039,0.3022,0.3024,0.3036,0.3063,0.3072,0.3074,0.3099,0.3085,0.3087,0.3088,0.3088,0.3195,0.3196,0,0,0,0,0,0,0.2909,0.2914,0.2986,0.299,0.2953,0.2997,0.3003,0.3015,0.3039,0.3044,0.3036,0.3036,0.3069,0.3072,0.3075,0.3143,0.3087,0.3089,0.3089,0.3193,0.3195,0.3197,0,0,0,0,0,0,0.2907,0.2915,0.2984,0.2956,0.2966,0.2999,0.3012,0.3016,0.3042,0.3051,0.3054,0.3059,0.3069,0.3073,0.311,0.3143,0.3089,0.3091,0.319,0.3193,0.3196,0.3247,0,0,0,0,0,0,0.2904,0.2914,0.293,0.2956,0.2968,0.302,0.3013,0.3018,0.305,0.3052,0.3071,0.3073,0.3069,0.3108,0.3112,0.3144,0.3092,0.3188,0.3192,0.3195,0.3243,0.3252,0.3259,0,0,0,0,0,0.29,0.2918,0.293,0.294,0.2986,0.3021,0.3028,0.3048,0.3052,0.3069,0.3086,0.3074,0.3133,0.3111,0.3115,0.3148,0.3186,0.3191,0.3195,0.324,0.325,0.3258,0,0,0,0,0,0,0.2884,0.2923,0.2936,0.2966,0.2999,0.3025,0.3047,0.3061,0.3089,0.3094,0.3096,0.31,0.3148,0.3143,0.3119,0.3191,0.3159,0.3164,0.3192,0.3201,0.3209,0.3215,0.3093,0,0,0,0,0,0.289,0.2911,0.2951,0.2975,0.2995,0.3025,0.3046,0.3063,0.3088,0.3101,0.3115,0.3136,0.3167,0.3179,0.3202,0.3237,0.3276,0.3263,0.327,0.3277,0.3287,0.3399,0.3418,0.3211,0.3211,0.3211,0,0,0.2884,0.2914,0.2923,0.2973,0.2999,0.3034,0.3037,0.3075,0.3105,0.31,0.3144,0.3167,0.3185,0.3229,0.325,0.3228,0.3355,0.3282,0.3287,0.3294,0.3406,0.3426,0.3444,0.3214,0.3213,0.3213,0,0,0.2888,0.2919,0.2941,0.2975,0.3028,0.3051,0.3068,0.3109,0.3131,0.3178,0.3189,0.3234,0.3266,0.3292,0.3308,0.3373,0.3398,0.338,0.3418,0.3527,0.3545,0.3562,0.3632,0.3655,0.3377,0.3377,0.3377,0,0.2885,0.292,0.2953,0.2991,0.3023,0.3061,0.3097,0.3127,0.3175,0.321,0.3198,0.3298,0.3299,0.3378,0.339,0.3391,0.345,0.3377,0.3538,0.3556,0.3572,0.364,0.3665,0.338,0.338,0.3379,0.3379,0,0.291,0.2942,0.2961,0.3019,0.3059,0.3096,0.3147,0.3191,0.3224,0.3261,0.3352,0.3374,0.344,0.3442,0.3428,0.3543,0.3546,0.3542,0.3515,0.3596,0.3662,0.3687,0.3384,0.3383,0.3382,0.3382,0,0,0.2882,0.2963,0.2964,0.3006,0.308,0.3116,0.3178,0.3254,0.3327,0.3367,0.3473,0.35,0.3538,0.3559,0.3569,0.3634,0.3775,0.3631,0.3635,0.37,0.4012,0.3905,0.392,0.3814,0.3818,0.3822,0.401,0,0.2891,0.2959,0.2995,0.306,0.3108,0.3167,0.3235,0.3312,0.3381,0.3494,0.3544,0.3649,0.3578,0.3642,0.3695,0.3766,0.3844,0.3723,0.3924,0.3929,0.3824,0.3947,0.3622,0.3754,0.4034,0.4038,0.4041,0,0.2905,0.2952,0.3019,0.3115,0.3143,0.3197,0.3332,0.3396,0.3548,0.3616,0.3719,0.3782,0.3884,0.3835,0.3984,0.3918,0.3974,0.401,0.402,0.3919,0.3868,0.372,0.3787,0.4082,0.4078,0.4075,0.4073,0,0.2887,0.2965,0.3024,0.3055,0.3173,0.3231,0.3304,0.3444,0.3542,0.3726,0.3832,0.395,0.4059,0.4132,0.4178,0.4116,0.4359,0.4289,0.4247,0.4239,0.3998,0.396,0.4438,0.4438,0.4437,0.4437,0.4436,0,0.2892,0.2927,0.303,0.3066,0.3173,0.3251,0.339,0.3487,0.367,0.379,0.3907,0.4024,0.4149,0.4278,0.4283,0.4341,0.4454,0.4285,0.4299,0.4003,0.3966,0.4268,0.4246,0.4444,0.4442,0.4441,0.444,0,0.2861,0.2919,0.2995,0.3119,0.3176,0.3256,0.3445,0.3524,0.3711,0.3883,0.3961,0.4159,0.4285,0.439,0.4547,0.4485,0.4549,0.4554,0.4179,0.4143,0.4321,0.4299,0.4506,0.4504,0.4502,0.4501,0.45,0,0.286,0.2906,0.3031,0.3078,0.3137,0.3272,0.3349,0.3542,0.3618,0.3915,0.3969,0.4214,0.4284,0.4479,0.4471,0.4518,0.4583,0.424,0.4038,0.4345,0.4338,0.4319,0.43,0.3744,0.3737,0.3731,0.3726,0,0.2852,0.2892,0.2919,0.3021,0.3102,0.3199,0.3318,0.34,0.3595,0.3742,0.39,0.4015,0.4224,0.4123,0.4236,0.4195,0.4187,0.4117,0.461,0.376,0.3638,0.3627,0.3632,0.3674,0.3679,0.3683,0.3686,0.3688,0.2818,0.2815,0.2838,0.2919,0.3003,0.3042,0.3051,0.3154,0.3259,0.34,0.3652,0.372,0.3846,0.3805,0.3732,0.3693,0.3938,0.3749,0.3764,0.3785,0.3646,0.3526,0.3515,0.3519,0.3523,0.3526,0.3529,0,0.2714,0.2701,0.2745,0.2778,0.2775,0.2895,0.2945,0.2887,0.2886,0.3119,0.3246,0.3092,0.3094,0.3219,0.308,0.3098,0.303,0.2968,0.2844,0.2901,0.295,0.2763,0.2401,0.2397,0.2393,0.2389,0,0,0.2653,0.2557,0.2547,0.2497,0.2559,0.2489,0.2466,0.2425,0.2508,0.2511,0.2598,0.294,0.3125,0.2714,0.2686,0.2514,0.2672,0.2421,0.3336,0.3247,0.3291,0.3428,0.3209,0,0,0,0,0]},{"header":{"parameterUnit":"m.s-1","parameterCategory":2,"la1":30.2991,"la2":30.254,"lo1":-89.0895,"lo2":-89.0444,"dy":0.0017,"dx":0.0017,"nx":28,"ny":28,"refTime":"2025-01-25T09:00:00:Z","depth":"2","parameterNumber":3,"parameterNumberName":"V-component_of_CURRENTS"},"data":[0,0,0,0,0,0,0,0,0,0,0,0,0,0,0,0,0,0,0,0,0,0,0,0,0,0,0,0,0,0,0,0,0,0,0,0,0,0,0,0,0,0,0,0,0,0,0,0,0,0,0,0,0,0,0,0,0,0,0.0067,0.0066,0,0.001,0.0009,0.0009,-0.0038,-0.0038,-0.0038,-0.0038,-0.0132,-0.0134,-0.0137,0,0,0,0,0,0,0,0,0,0,0,0,0,0.0065,0.0066,0.0067,0.0066,0.0066,0.001,0.0009,0.0008,-0.0037,-0.0038,-0.0038,-0.0039,-0.0132,-0.0134,-0.0137,0,0,0,0,0,0,0,0,0,0,0,0,0,0.0041,0.0066,0.0067,0.0037,0.0034,0.001,0.0009,0.0008,-0.0037,-0.0038,-0.0038,-0.0039,-0.0131,-0.0134,-0.0137,-0.0148,0,0,-0.0147,-0.0149,0,0,0,0,0,0,0,0,0.0043,0.0041,0.0042,0.0039,0.0036,-0.0006,-0.0026,-0.0045,-0.0037,-0.0012,-0.0038,-0.0039,-0.0092,-0.0098,-0.011,-0.0153,-0.0157,-0.0148,-0.015,-0.0151,-0.0152,0,0,0,0,0,0,0,0.0045,0.0043,0.0042,0.0042,0.0038,0.0003,-0.0,-0.003,-0.0051,-0.0014,-0.0017,-0.0021,-0.0094,-0.0107,-0.0113,-0.0158,-0.0147,-0.015,-0.0152,-0.0154,-0.0215,-0.0215,0,0,0,0,0,0,0.006,0.0045,0.0044,0.0041,0.004,0.0004,0.0,0.0007,-0.005,-0.0058,-0.002,-0.0022,-0.0101,-0.0109,-0.0116,-0.0116,-0.0151,-0.0154,-0.0156,-0.0215,-0.0215,-0.0215,0,0,0,0,0,0,0.006,0.0061,0.0047,0.0042,0.0038,0.0005,0.0013,0.0006,-0.0004,-0.0053,-0.0063,-0.0022,-0.0101,-0.0111,-0.0133,-0.0121,-0.0156,-0.0159,-0.0216,-0.0215,-0.0215,-0.0126,0,0,0,0,0,0,0.0061,0.0061,0.0068,0.0044,0.0039,0.0045,0.0013,0.0005,-0.0004,-0.0008,-0.0058,-0.0068,-0.0103,-0.0128,-0.0137,-0.0126,-0.0161,-0.0216,-0.0216,-0.0215,-0.013,-0.0123,-0.0117,0,0,0,0,0,0.0061,0.0081,0.0069,0.0068,0.0051,0.0046,0.004,0.0013,-0.0003,0.0,-0.0034,-0.0066,-0.013,-0.013,-0.014,-0.013,-0.0217,-0.0216,-0.0215,-0.0132,-0.0124,-0.0117,0,0,0,0,0,0,0.0085,0.0078,0.0064,0.0081,0.0067,0.0039,0.0039,0.002,-0.0005,-0.001,-0.0059,-0.0071,-0.0087,-0.0121,-0.012,-0.0147,-0.018,-0.0181,-0.0113,-0.0106,-0.01,-0.0076,-0.0164,0,0,0,0,0,0.0094,0.0106,0.009,0.0101,0.0099,0.0069,0.0061,0.0046,0.0022,0.001,-0.0024,-0.0063,-0.0092,-0.0107,-0.014,-0.0152,-0.0187,-0.0154,-0.0148,-0.0142,-0.013,-0.0165,-0.016,-0.0212,-0.0212,-0.0212,0,0,0.0105,0.0103,0.0108,0.0106,0.0091,0.0103,0.0063,0.0062,0.007,0.0004,0.0001,-0.0042,-0.0091,-0.0104,-0.0115,-0.013,-0.0148,-0.0141,-0.0135,-0.0127,-0.0164,-0.0159,-0.0154,-0.0211,-0.0212,-0.0212,0,0,0.014,0.0133,0.0156,0.0153,0.0144,0.0129,0.0134,0.0111,0.0099,0.0089,0.0044,0.0015,-0.0031,-0.006,-0.0082,-0.006,-0.0113,-0.0076,-0.0022,-0.0056,-0.0051,-0.0048,-0.009,-0.0091,-0.0071,-0.0071,-0.0071,0,0.0152,0.0182,0.016,0.0183,0.0189,0.0148,0.0176,0.016,0.0132,0.013,0.01,0.004,-0.0008,-0.0018,-0.0016,-0.0044,-0.0076,-0.0044,-0.0045,-0.0043,-0.0041,-0.0086,-0.0088,-0.0067,-0.0067,-0.0067,-0.0068,0,0.0206,0.0228,0.0243,0.026,0.0262,0.0279,0.026,0.0259,0.0234,0.0212,0.0193,0.0129,0.0095,0.0071,0.0031,0.0025,-0.0007,-0.0033,-0.0059,-0.003,-0.008,-0.0083,-0.006,-0.0062,-0.0063,-0.0064,0,0,0.0238,0.0276,0.028,0.0308,0.0307,0.0321,0.0334,0.0339,0.036,0.0309,0.033,0.0256,0.0215,0.0187,0.0132,0.0097,0.0071,0.0044,0.004,0.0012,-0.0009,-0.0056,-0.0066,0.0046,0.0046,0.0046,-0.005,0,0.0286,0.0356,0.0354,0.0415,0.0452,0.0428,0.0454,0.0449,0.0426,0.0434,0.0362,0.0355,0.0261,0.0255,0.0201,0.011,0.0066,0.01,-0.0042,-0.0046,-0.0083,-0.007,-0.004,-0.0125,-0.0055,-0.0055,-0.0056,0,0.034,0.0384,0.0457,0.0516,0.0529,0.0558,0.0594,0.0613,0.0601,0.0585,0.0547,0.0489,0.043,0.0356,0.0203,0.0229,0.0118,0.0038,0.0032,-0.0043,-0.01,-0.0144,-0.0136,-0.0063,-0.0063,-0.0062,-0.0062,0,0.0386,0.0455,0.0521,0.0539,0.0594,0.0627,0.0657,0.0662,0.0704,0.069,0.0712,0.0611,0.0591,0.0435,0.0247,0.0228,0.0083,0.0035,-0.0114,-0.012,-0.0137,-0.0144,-0.0066,-0.0066,-0.0065,-0.0065,-0.0065,0,0.0442,0.0495,0.0556,0.0594,0.0694,0.07,0.0792,0.0804,0.0842,0.0909,0.0801,0.0823,0.0612,0.0496,0.0299,0.0081,0.0114,-0.0101,-0.0143,-0.0108,-0.011,-0.009,-0.0092,-0.0069,-0.0068,-0.0067,-0.0067,0,0.0481,0.0516,0.0602,0.068,0.0722,0.0792,0.0908,0.0972,0.0988,0.1075,0.1085,0.0998,0.0836,0.0603,0.0364,0.0168,-0.0044,-0.0128,-0.0078,-0.0113,-0.0242,-0.0238,-0.0312,-0.0315,-0.0317,-0.0319,-0.032,0,0.0511,0.0559,0.0672,0.0744,0.0788,0.0901,0.0991,0.1049,0.1124,0.1181,0.1233,0.1121,0.1047,0.0664,0.0314,-0.0033,-0.0065,-0.0232,-0.0272,-0.0231,-0.0266,-0.0258,-0.0252,-0.0266,-0.0267,-0.0267,-0.0268,0,0.0565,0.0596,0.0666,0.082,0.0929,0.1061,0.1189,0.1284,0.1358,0.1424,0.1485,0.1438,0.1077,0.0733,0.0258,0.0019,-0.0182,-0.026,-0.0214,-0.0208,-0.0196,-0.0226,-0.022,-0.0274,-0.0274,-0.0273,-0.0273,-0.0273,0.0601,0.0659,0.0754,0.0904,0.1032,0.1202,0.1338,0.1463,0.161,0.1728,0.1669,0.1614,0.1212,0.0607,0.0188,-0.0241,-0.0235,-0.0381,-0.0376,-0.037,-0.0347,-0.0339,-0.0441,-0.0441,-0.0441,-0.0442,-0.0442,0,0.064,0.0712,0.0846,0.1016,0.1163,0.1232,0.1457,0.1587,0.1773,0.1862,0.1903,0.1537,0.113,0.0679,0.0036,-0.0364,-0.0379,-0.0481,-0.0406,-0.0398,-0.0392,-0.0367,-0.0468,-0.0469,-0.047,-0.0471,0,0,0.0663,0.0782,0.0857,0.1101,0.1226,0.1442,0.1587,0.1778,0.1904,0.1989,0.1972,0.1864,0.1298,0.0835,0.0283,-0.0081,-0.0139,-0.0154,-0.0094,0.0066,0.0079,-0.0304,-0.0254,0,0,0,0,0]}],[{"header":{"parameterUnit":"m.s-1","parameterCategory":2,"la1":30.2991,"la2":30.254,"lo1":-89.0895,"lo2":-89.0444,"dy":0.0017,"dx":0.0017,"nx":28,"ny":28,"refTime":"2025-01-25T09:00:00:Z","depth":"4","parameterNumber":2,"parameterNumberName":"U-component_of_CURRENTS"},"data":[0,0,0,0,0,0,0,0,0,0,0,0,0,0,0,0,0,0,0,0,0,0,0,0,0,0,0,0,0,0,0,0,0,0,0,0,0,0,0,0,0,0,0,0,0,0,0,0,0,0,0,0,0,0,0,0,0,0,0.1883,0.1884,0,0.1975,0.1975,0.1976,0.205,0.2051,0.2052,0.2052,0.2156,0.2158,0.216,0,0,0,0,0,0,0,0,0,0,0,0,0,0.177,0.1771,0.1882,0.1884,0.1885,0.1974,0.1976,0.1977,0.205,0.2051,0.2052,0.2053,0.2155,0.2158,0.216,0,0,0,0,0,0,0,0,0,0,0,0,0,0.1834,0.1772,0.1882,0.1933,0.1939,0.1974,0.1976,0.1977,0.2049,0.2051,0.2052,0.2053,0.2155,0.2157,0.216,0.2151,0,0,0.2169,0.217,0,0,0,0,0,0,0,0,0.1831,0.1838,0.1925,0.193,0.1936,0.2004,0.1974,0.2036,0.2049,0.2006,0.2052,0.2054,0.2106,0.2113,0.2125,0.2156,0.2161,0.2169,0.2171,0.2172,0.2173,0,0,0,0,0,0,0,0.1826,0.1835,0.1917,0.1926,0.1933,0.1952,0.1962,0.1986,0.2046,0.201,0.2016,0.2028,0.211,0.2122,0.2128,0.2162,0.2169,0.2172,0.2174,0.2175,0.2323,0.2325,0,0,0,0,0,0,0.1817,0.183,0.1914,0.192,0.1888,0.1953,0.1965,0.1979,0.2046,0.2058,0.2027,0.2031,0.2116,0.2125,0.2132,0.224,0.2172,0.2175,0.2177,0.2321,0.2324,0.2326,0,0,0,0,0,0,0.1814,0.1823,0.1911,0.1879,0.1891,0.1954,0.1969,0.198,0.2036,0.2059,0.2071,0.2077,0.2118,0.2128,0.2194,0.224,0.2176,0.2179,0.2318,0.2322,0.2325,0.2383,0,0,0,0,0,0,0.181,0.1822,0.1848,0.1878,0.1893,0.1957,0.1969,0.1981,0.204,0.2048,0.2105,0.2113,0.212,0.219,0.2197,0.2243,0.2181,0.2316,0.232,0.2324,0.2378,0.2388,0.2396,0,0,0,0,0,0.1806,0.1827,0.1848,0.186,0.192,0.1958,0.1968,0.2015,0.2041,0.207,0.2116,0.2114,0.2222,0.2194,0.2202,0.225,0.2314,0.2319,0.2323,0.2374,0.2386,0.2396,0,0,0,0,0,0,0.1791,0.1837,0.1861,0.1897,0.1939,0.1972,0.2008,0.2037,0.2095,0.2117,0.2138,0.215,0.2228,0.223,0.22,0.2306,0.2269,0.2276,0.2305,0.2316,0.2325,0.2323,0.2184,0,0,0,0,0,0.1798,0.1832,0.1873,0.1908,0.1932,0.1979,0.2009,0.2041,0.2086,0.2115,0.2156,0.2202,0.2246,0.2276,0.2311,0.2363,0.2377,0.2402,0.2411,0.2418,0.2424,0.2495,0.2511,0.2342,0.2342,0.2342,0,0,0.1803,0.1834,0.1855,0.1909,0.1948,0.1984,0.2001,0.2058,0.2101,0.2115,0.2201,0.2238,0.2268,0.2334,0.2369,0.2347,0.2473,0.2424,0.243,0.2432,0.2502,0.2518,0.2533,0.2346,0.2345,0.2344,0,0,0.1814,0.1859,0.1888,0.1926,0.1991,0.2017,0.2042,0.2103,0.2149,0.2221,0.225,0.2316,0.238,0.2412,0.2433,0.2511,0.252,0.2533,0.2575,0.2645,0.2659,0.2672,0.2703,0.2718,0.2534,0.2534,0.2535,0,0.1822,0.186,0.1904,0.194,0.1977,0.2035,0.2073,0.2122,0.2201,0.2247,0.226,0.239,0.2413,0.2495,0.2524,0.2531,0.2564,0.2529,0.2656,0.2669,0.2681,0.271,0.2726,0.2538,0.2537,0.2537,0.2537,0,0.1839,0.1889,0.1912,0.1977,0.2021,0.2067,0.2131,0.2198,0.2262,0.2311,0.2426,0.247,0.2547,0.2569,0.2569,0.2673,0.2666,0.266,0.2625,0.2701,0.2727,0.2742,0.2543,0.2541,0.254,0.254,0,0,0.1808,0.1906,0.1919,0.1963,0.2048,0.2084,0.2167,0.2254,0.2328,0.2415,0.2512,0.259,0.2636,0.2663,0.2689,0.2744,0.2847,0.2744,0.2746,0.2767,0.2993,0.2803,0.2801,0.2877,0.288,0.2883,0.2974,0,0.1816,0.1879,0.1931,0.201,0.205,0.2134,0.2204,0.2297,0.2385,0.2495,0.2573,0.2678,0.2666,0.273,0.2782,0.2842,0.2894,0.2822,0.2922,0.2925,0.2741,0.2815,0.2893,0.2985,0.2989,0.2991,0.2993,0,0.1809,0.1858,0.1924,0.2038,0.2067,0.2126,0.2262,0.2339,0.249,0.2565,0.268,0.2755,0.2868,0.2848,0.2979,0.2943,0.2976,0.3004,0.3008,0.2819,0.2763,0.2897,0.3021,0.3019,0.3017,0.3015,0.3013,0,0.1748,0.1858,0.1912,0.1948,0.2076,0.2142,0.2227,0.2368,0.2452,0.2636,0.2722,0.2855,0.2956,0.3022,0.3082,0.3058,0.3208,0.3177,0.3031,0.3018,0.3134,0.312,0.3269,0.3269,0.3269,0.3269,0.3269,0,0.1713,0.1767,0.19,0.1927,0.2018,0.2127,0.2243,0.235,0.2511,0.2611,0.2767,0.2859,0.3015,0.3114,0.3132,0.3121,0.3253,0.3047,0.3036,0.3155,0.3142,0.3144,0.3129,0.3272,0.3271,0.3271,0.327,0,0.1623,0.1713,0.1787,0.1931,0.1986,0.2057,0.2239,0.231,0.2492,0.2631,0.2705,0.2911,0.3033,0.3139,0.3261,0.3174,0.3189,0.3154,0.3273,0.3266,0.2936,0.2923,0.299,0.2984,0.2979,0.2975,0.2971,0,0.1575,0.16,0.1758,0.1806,0.1877,0.2004,0.2074,0.2273,0.2351,0.2626,0.267,0.2885,0.2993,0.3005,0.3126,0.3153,0.3119,0.3101,0.3007,0.2929,0.2913,0.2907,0.2901,0.2964,0.2962,0.2961,0.296,0,0.146,0.153,0.1578,0.1679,0.1768,0.1858,0.199,0.204,0.2268,0.2464,0.2581,0.2672,0.2806,0.2889,0.2945,0.2953,0.3094,0.3049,0.3058,0.2969,0.2898,0.2886,0.2885,0.2943,0.2945,0.2947,0.2948,0,0.1367,0.1364,0.1434,0.1521,0.1625,0.1673,0.1774,0.1879,0.1994,0.2309,0.2343,0.2566,0.2771,0.2788,0.283,0.2834,0.2787,0.2685,0.2712,0.2732,0.2606,0.2475,0.2389,0,0,0,0,0,0.1257,0.1225,0.127,0.1346,0.1449,0.1516,0.1687,0.1797,0.2042,0.2057,0.2198,0.231,0.2418,0.2536,0.2489,0.2706,0.2783,0.2638,0.2674,0.2849,0.2868,0.2744,0,0,0,0,0,0,0.117,0.1178,0.1193,0.1184,0.1213,0.1298,0.1403,0.157,0.1605,0.1873,0.1944,0.2151,0.2286,0.2407,0.2434,0.2469,0.2441,0.2785,0.2778,0.2838,0.2855,0.2871,0.275,0,0,0,0,0]},{"header":{"parameterUnit":"m.s-1","parameterCategory":2,"la1":30.2991,"la2":30.254,"lo1":-89.0895,"lo2":-89.0444,"dy":0.0017,"dx":0.0017,"nx":28,"ny":28,"refTime":"2025-01-25T09:00:00:Z","depth":"4","parameterNumber":3,"parameterNumberName":"V-component_of_CURRENTS"},"data":[0,0,0,0,0,0,0,0,0,0,0,0,0,0,0,0,0,0,0,0,0,0,0,0,0,0,0,0,0,0,0,0,0,0,0,0,0,0,0,0,0,0,0,0,0,0,0,0,0,0,0,0,0,0,0,0,0,0,0.0066,0.0065,0,0.0027,0.0027,0.0026,-0.0004,-0.0005,-0.0005,-0.0005,-0.0075,-0.0077,-0.0078,0,0,0,0,0,0,0,0,0,0,0,0,0,0.0063,0.0063,0.0066,0.0065,0.0065,0.0027,0.0027,0.0026,-0.0004,-0.0005,-0.0005,-0.0005,-0.0074,-0.0076,-0.0078,0,0,0,0,0,0,0,0,0,0,0,0,0,0.0048,0.0064,0.0066,0.0046,0.0044,0.0027,0.0027,0.0026,-0.0004,-0.0005,-0.0005,-0.0005,-0.0074,-0.0076,-0.0079,-0.0087,0,0,-0.0086,-0.0087,0,0,0,0,0,0,0,0,0.0048,0.0048,0.0049,0.0047,0.0045,0.0017,0.0,-0.0013,-0.0004,0.0013,-0.0005,-0.0005,-0.0046,-0.0051,-0.0059,-0.0091,-0.0094,-0.0087,-0.0088,-0.0089,-0.009,0,0,0,0,0,0,0,0.005,0.0049,0.005,0.0049,0.0046,0.0022,0.002,-0.0003,-0.0016,0.0011,0.0009,0.0007,-0.0048,-0.0056,-0.0061,-0.0095,-0.0086,-0.0089,-0.009,-0.0091,-0.0143,-0.0143,0,0,0,0,0,0,0.0059,0.005,0.0051,0.0049,0.0047,0.0022,0.002,0.0025,-0.0015,-0.0021,0.0007,0.0005,-0.0052,-0.0058,-0.0063,-0.0065,-0.0089,-0.0091,-0.0093,-0.0143,-0.0143,-0.0143,0,0,0,0,0,0,0.006,0.006,0.0052,0.0048,0.0046,0.0023,0.0029,0.0025,0.0019,-0.0018,-0.0025,0.0006,-0.0052,-0.006,-0.0077,-0.0068,-0.0093,-0.0095,-0.0143,-0.0143,-0.0143,-0.0075,0,0,0,0,0,0,0.006,0.0061,0.0066,0.005,0.0047,0.0051,0.003,0.0024,0.0018,0.0015,-0.0021,-0.0028,-0.0053,-0.0073,-0.008,-0.0072,-0.0097,-0.0143,-0.0143,-0.0143,-0.0078,-0.0073,-0.0069,0,0,0,0,0,0.006,0.0075,0.0067,0.0067,0.0056,0.0051,0.0048,0.0029,0.0018,0.0021,-0.0004,-0.0027,-0.0077,-0.0075,-0.0082,-0.0075,-0.0144,-0.0143,-0.0143,-0.008,-0.0074,-0.0069,0,0,0,0,0,0,0.0077,0.0073,0.0064,0.0077,0.0067,0.0047,0.0048,0.0034,0.0016,0.0014,-0.0023,-0.0031,-0.0045,-0.0071,-0.0068,-0.0091,-0.0115,-0.0116,-0.0064,-0.0059,-0.0055,-0.0037,-0.0099,0,0,0,0,0,0.0084,0.0094,0.0082,0.0091,0.0089,0.0068,0.0063,0.0052,0.0035,0.0027,0.0002,-0.0027,-0.005,-0.0062,-0.0087,-0.0097,-0.0135,-0.0099,-0.0095,-0.0091,-0.0083,-0.0129,-0.0128,-0.0142,-0.0142,-0.0142,0,0,0.0092,0.0091,0.0095,0.0095,0.0085,0.0094,0.0065,0.0064,0.0071,0.0022,0.0021,-0.0012,-0.005,-0.0061,-0.007,-0.008,-0.011,-0.009,-0.0086,-0.0081,-0.0129,-0.0127,-0.0126,-0.0142,-0.0142,-0.0142,0,0,0.0118,0.0114,0.0131,0.013,0.0123,0.0113,0.0117,0.0101,0.0093,0.0086,0.0051,0.0027,-0.0007,-0.003,-0.0047,-0.0034,-0.0086,-0.0046,-0.0006,-0.0051,-0.005,-0.005,-0.0107,-0.0112,-0.0042,-0.0042,-0.0042,0,0.0126,0.015,0.0134,0.0152,0.0158,0.0127,0.015,0.0138,0.0118,0.0114,0.0095,0.0043,0.0009,-0.0005,-0.0001,-0.0023,-0.0062,-0.0021,-0.0044,-0.0045,-0.0045,-0.0104,-0.0111,-0.0039,-0.0039,-0.0039,-0.004,0,0.0165,0.0184,0.0195,0.021,0.0213,0.0226,0.0214,0.0213,0.0196,0.0177,0.0156,0.0108,0.0078,0.006,0.0035,0.0016,-0.0016,-0.0033,-0.0054,-0.004,-0.0103,-0.0111,-0.0034,-0.0035,-0.0036,-0.0037,0,0,0.0185,0.0218,0.0222,0.0245,0.0247,0.0259,0.0271,0.0273,0.0281,0.0245,0.0248,0.0199,0.0164,0.0142,0.01,0.0061,0.0015,0.0018,0.0014,-0.0031,-0.0096,-0.0101,-0.0111,-0.0006,-0.0007,-0.0008,-0.0142,0,0.0219,0.0272,0.0276,0.0326,0.0352,0.034,0.0359,0.0354,0.0331,0.0323,0.0266,0.0248,0.0197,0.0184,0.0137,0.0048,-0.0001,0.0053,-0.011,-0.0115,-0.0114,-0.0118,-0.001,-0.0148,-0.015,-0.0152,-0.0153,0,0.0255,0.0289,0.0346,0.0396,0.0407,0.0431,0.0454,0.0468,0.0441,0.0421,0.0383,0.0333,0.0275,0.0231,0.0085,0.012,0.0021,-0.0055,-0.0062,-0.0092,-0.0133,-0.0166,-0.0168,-0.0167,-0.0166,-0.0165,-0.0164,0,0.0279,0.0339,0.039,0.0405,0.0451,0.0479,0.0503,0.0496,0.0519,0.0483,0.048,0.0394,0.0358,0.023,0.0072,0.0077,-0.0101,-0.0116,-0.0219,-0.0222,-0.0207,-0.0206,-0.0222,-0.0222,-0.0221,-0.0221,-0.022,0,0.0313,0.0356,0.041,0.0439,0.0512,0.0525,0.0586,0.0587,0.0595,0.0624,0.0538,0.0528,0.0357,0.0238,0.0086,-0.0093,-0.0096,-0.0213,-0.0252,-0.0178,-0.0172,-0.0214,-0.0212,-0.0226,-0.0225,-0.0224,-0.0223,0,0.033,0.0362,0.0429,0.0494,0.0527,0.0577,0.0662,0.0704,0.0693,0.0725,0.0722,0.0623,0.0467,0.0275,0.0055,-0.0064,-0.0242,-0.0309,-0.0227,-0.0259,-0.0339,-0.0332,-0.0427,-0.0429,-0.043,-0.043,-0.0431,0,0.0343,0.0378,0.0473,0.0529,0.0566,0.065,0.0719,0.0751,0.0797,0.0785,0.0806,0.0673,0.0581,0.0268,0.0056,-0.0245,-0.0283,-0.0382,-0.0347,-0.033,-0.0358,-0.0349,-0.034,-0.0433,-0.0433,-0.0433,-0.0433,0,0.0371,0.0402,0.0464,0.058,0.0666,0.0764,0.0858,0.0901,0.0937,0.0922,0.088,0.072,0.0538,0.0288,0.0045,-0.0166,-0.0317,-0.0393,-0.0392,-0.036,-0.0338,-0.0363,-0.0353,-0.0437,-0.0436,-0.0436,-0.0436,0,0.0398,0.0445,0.0533,0.0639,0.0745,0.0853,0.0899,0.0963,0.1005,0.0986,0.0968,0.0763,0.0643,0.0327,0.0107,-0.0107,-0.0153,-0.0211,-0.0221,-0.022,-0.0118,-0.0056,-0.0101,0,0,0,0,0,0.0423,0.0492,0.0592,0.0712,0.0813,0.0881,0.0988,0.1024,0.1053,0.1041,0.1008,0.0839,0.0521,0.0381,0.0169,0.0077,-0.0201,-0.0179,-0.0275,-0.0456,-0.0452,-0.0368,0,0,0,0,0,0,0.0445,0.054,0.06,0.0751,0.0838,0.0963,0.1033,0.1057,0.1051,0.1037,0.0874,0.0783,0.0473,0.0638,0.0162,0.0095,0.0006,-0.0333,-0.0338,-0.0458,-0.0454,-0.0451,-0.0363,0,0,0,0,0]}]]